Vacaville, CA

9:10 PM PDT on July 27, 2016 (GMT -0700)
Nut Tree

Weather History for KVCB - November, 2014

Change the Weather History Date:

Friday, November 7, 2014

  Actual Average Record
Temperature  
Mean Temperature 62 °F -  
Max Temperature 79 °F 68 °F 86 °F (1955)
Min Temperature 46 °F 45 °F 33 °F (1957)
Degree Days  
Heating Degree Days 2    
Growing Degree Days 12 (Base 50)    
Moisture  
Dew Point 48 °F    
Average Humidity 63    
Maximum Humidity 90    
Minimum Humidity 35    
Precipitation  
Precipitation 0.00 in - - ()
Sea Level Pressure  
Sea Level Pressure 30.16 in    
Wind  
Wind Speed 2 mph (WSW)    
Max Wind Speed 5 mph    
Max Gust Speed -    
Visibility 10 miles    
Events      
Averages and records for this station are not official NWS values.
T = Trace of Precipitation, MM = Missing Value Source: NWS Daily Summary

Daily Weather History Graph

Daily Weather History Graph

Search for Another Location

Airport or City:

Trip Planner

Search our weather history database for the weather conditions in past years. The results will help you decide how hot, cold, wet, or windy it might be!

Date:

Astronomy

Nov. 07, 2014 Rise Set
Actual Time 6:40 AM PST 5:01 PM PST
Civil Twilight 6:12 AM PST 5:29 PM PST
Nautical Twilight 5:41 AM PST 6:01 PM PST
Astronomical Twilight 5:10 AM PST 6:32 PM PST
Moon 5:58 PM PST (11/7) 7:21 AM PST (11/7)
Length of Visible Light 11h 16m
Length of Day
10h 21m
Full, 99% of the Moon is Illuminated
Nov 7
Full
Nov 14
Last Quarter
Nov 22
New
Nov 29
First Quarter
Dec 6
Full

Hourly Weather History & Observations

Time (PST) Temp. Dew Point Humidity Pressure Visibility Wind Dir Wind Speed Gust Speed Precip Events Conditions
12:53 AM 48.9 °F 45.0 °F 86% 30.20 in 9.0 mi Calm Calm - N/A   Clear
1:53 AM 48.9 °F 45.0 °F 86% 30.20 in 10.0 mi Calm Calm - N/A   Clear
2:53 AM 54.0 °F 46.9 °F 77% 30.20 in 10.0 mi SSW 3.5 mph - N/A   Clear
3:53 AM 52.0 °F 46.0 °F 80% 30.19 in 10.0 mi SW 4.6 mph - N/A   Clear
4:53 AM 48.9 °F 45.0 °F 86% 30.19 in 10.0 mi Calm Calm - N/A   Clear
5:53 AM 46.9 °F 44.1 °F 90% 30.20 in 10.0 mi Calm Calm - N/A   Clear
6:53 AM 48.0 °F 45.0 °F 89% 30.22 in 9.0 mi Calm Calm - N/A   Clear
7:53 AM 55.9 °F 48.9 °F 77% 30.23 in 10.0 mi Calm Calm - N/A   Clear
8:53 AM 64.9 °F 48.0 °F 54% 30.24 in 10.0 mi Calm Calm - N/A   Clear
9:53 AM 66.9 °F 50.0 °F 54% 30.24 in 10.0 mi Calm Calm - N/A   Clear
10:53 AM 71.1 °F 48.9 °F 45% 30.22 in 10.0 mi Calm Calm - N/A   Clear
11:53 AM 73.9 °F 50.0 °F 43% 30.19 in 10.0 mi Variable 4.6 mph - N/A   Clear
12:53 PM 75.9 °F 50.0 °F 40% 30.16 in 10.0 mi North 4.6 mph - N/A   Clear
1:53 PM 77.0 °F 48.9 °F 37% 30.13 in 10.0 mi Variable 4.6 mph - N/A   Clear
2:53 PM 79.0 °F 48.9 °F 35% 30.12 in 10.0 mi NNE 4.6 mph - N/A   Clear
3:53 PM 78.1 °F 48.0 °F 35% 30.11 in 10.0 mi Calm Calm - N/A   Clear
4:53 PM 70.0 °F 48.0 °F 46% 30.10 in 10.0 mi Calm Calm - N/A   Clear
5:53 PM 63.0 °F 48.9 °F 60% 30.10 in 10.0 mi Calm Calm - N/A   Clear
6:53 PM 59.0 °F 48.0 °F 67% 30.10 in 10.0 mi SW 3.5 mph - N/A   Clear
7:53 PM 59.0 °F 48.0 °F 67% 30.10 in 10.0 mi WSW 3.5 mph - N/A   Clear
8:53 PM 63.0 °F 48.0 °F 58% 30.10 in 10.0 mi SW 4.6 mph - N/A   Clear
9:53 PM 60.1 °F 48.0 °F 64% 30.10 in 10.0 mi SW 4.6 mph - N/A   Clear
10:53 PM 57.9 °F 46.9 °F 67% 30.10 in 10.0 mi SW 4.6 mph - N/A   Clear
11:53 PM 53.1 °F 46.0 °F 77% 30.10 in 10.0 mi Calm Calm - N/A   Clear